This demonstration page uses our WeatherBlox Daily Observations layout. Learn more.

Left ArrowRight Arrow

53.62937, 11.41316

Hourly Observations for October 21, 2015

Temp ( °F °C ) Dew Point ( °F °C ) Humidity (%) Winds ( mph kmh ) Pressure ( in mb ) Visibility ( mi km ) Precip ( " mm )
6:20 am 06:20 Mostly Cloudy 46 8 46 8 100 100 WSW 6 9 30.09 1019 4 6 N/A
6:50 am 06:50 Mostly Cloudy 46 8 46 8 100 100 WSW 5 7 30.09 1019 4 6 N/A
7:20 am 07:20 Mostly Cloudy 46 8 46 8 100 100 WSW 6 9 30.09 1019 5 8 N/A
7:50 am 07:50 Cloudy 46 8 46 8 100 100 WSW 5 7 30.09 1019 4 7 N/A
8:20 am 08:20 Cloudy 46 8 45 7 93 93 W 5 7 30.09 1019 4 7 N/A
8:50 am 08:50 Cloudy 46 8 45 7 93 93 SW 5 7 30.09 1019 4 6 N/A
9:20 am 09:20 Mostly Cloudy 46 8 46 8 100 100 WSW 6 9 30.09 1019 5 8 N/A
9:50 am 09:50 Cloudy 48 9 46 8 94 94 WSW 6 9 30.09 1019 30 48 N/A
10:20 am 10:20 Cloudy 48 9 46 8 94 94 WSW 6 9 30.09 1019 30 48 N/A
10:50 am 10:50 Mostly Cloudy 48 9 46 8 94 94 WSW 6 9 30.09 1019 30 48 N/A
11:20 am 11:20 Cloudy 50 10 46 8 88 88 SW 7 11 30.09 1019 30 48 N/A
11:50 am 11:50 Mostly Cloudy 52 11 46 8 82 82 SW 8 13 30.09 1019 30 48 N/A
12:20 pm 12:20 Mostly Sunny 54 12 45 7 72 72 WSW 10 17 30.09 1019 7 11 N/A
12:50 pm 12:50 Mostly Cloudy 54 12 39 4 58 58 SW 10 17 30.06 1018 30 48 N/A
1:20 pm 13:20 Cloudy 54 12 45 7 72 72 SW 12 19 30.06 1018 30 48 N/A
1:50 pm 13:50 Mostly Sunny 54 12 43 6 67 67 SW 10 17 30.06 1018 7 11 N/A
2:20 pm 14:20 Cloudy 54 12 41 5 63 63 SW 9 15 30.06 1018 30 48 N/A
2:50 pm 14:50 Cloudy 52 11 43 6 72 72 SW 9 15 30.06 1018 30 48 N/A
3:20 pm 15:20 Cloudy 52 11 45 7 77 77 SSW 8 13 30.03 1017 30 48 N/A
3:50 pm 15:50 Cloudy 52 11 46 8 82 82 SW 9 15 30.03 1017 30 48 N/A
4:20 pm 16:20 Cloudy 52 11 46 8 82 82 SW 10 17 30.03 1017 30 48 N/A
4:50 pm 16:50 Cloudy 52 11 46 8 82 82 SSW 7 11 30.03 1017 30 48 N/A
5:20 pm 17:20 Cloudy 52 11 46 8 82 82 S 6 9 30.03 1017 30 48 N/A
5:50 pm 17:50 Cloudy 50 10 46 8 88 88 SSW 6 9 30.03 1017 30 48 N/A
6:20 pm 18:20 Mostly Clear 50 10 46 8 88 88 SSW 6 9 30.03 1017 7 11 N/A
6:50 pm 18:50 Mostly Clear 50 10 46 8 88 88 SSW 6 9 30.00 1016 7 11 N/A

Powered by AerisWeather